Home   Weather   Wellington   Past weeks

Flag for New Zealand Past Weather in Wellington, New Zealand — Yesterday and Last 2 Weeks

54 °F

Mostly cloudy.

Feels Like: 54 °F
Forecast: 50 / 60 °F
Wind: 1 mph from Southeast

Location: Wellington Airport

Current Time: Oct 26, 2016 at 10:29:31 PM

Latest Report: Oct 26, 2016 at 10:00 PM

Visibility: N/A

Pressure: 29.86 "Hg

Humidity: 88%

Dew Point: 50 °F

Location of WellingtonLocation

Past Weather in Wellington — Graph


Wellington Temperature Yesterday

Maximum temperature yesterday: 63 °F (at 4:30 PM)
Minimum temperature yesterday: 55 °F (at 4:00 AM)
Average temperature yesterday: 58 °F

High & Low Weather Summary for the Past Weeks

High64 °F (Oct 17, 1:00 PM)100% (Oct 21, 8:00 AM)30.21 "Hg (Oct 21, 8:00 AM)
Low39 °F (Oct 23, 5:00 AM)52% (Oct 13, 12:30 PM)29.42 "Hg (Oct 12, 1:30 PM)
Average56 °F78%29.86 "Hg
* Reported Oct 11 9:00 PM — Oct 26 9:00 PM, Wellington, Weather by CustomWeather, © 2016

Note: Actual official high and low records may vary slightly from our data, if they occured in-between our weather recording intervals... More about our weather records


Wellington Weather History for the Previous 24 Hours

Scroll right to see more
Time TempWeatherWind HumidityBarometerVisibility
9:00 PM
Wed, Oct 26
54 °FPassing clouds.7 mph88%29.83 "HgN/A
8:30 PM54 °FPartly cloudy.9 mph88%29.80 "HgN/A
8:00 PM54 °FPassing clouds.13 mph88%29.80 "HgN/A
7:30 PM55 °FPassing clouds.13 mph88%29.77 "HgN/A
7:00 PM55 °FPassing clouds.12 mph88%29.77 "HgN/A
6:30 PM55 °FOvercast.12 mph88%29.74 "HgN/A
6:00 PM55 °FOvercast.13 mph88%29.74 "HgN/A
5:30 PM55 °FOvercast.13 mph88%29.74 "HgN/A
5:00 PM55 °FOvercast.15 mph88%29.71 "HgN/A
4:30 PM54 °FBroken clouds.18 mph94%29.71 "HgN/A
4:00 PM55 °FBroken clouds.15 mph94%29.71 "HgN/A
3:30 PM59 °FLight rain. Broken clouds.12 mph82%29.68 "HgN/A
3:00 PM59 °FLight rain. Mostly cloudy.10 mph88%29.68 "HgN/A
2:30 PM59 °FMostly cloudy.17 mph88%29.68 "HgN/A
2:00 PM57 °FLight rain. Partly sunny.21 mph94%29.68 "HgN/A
1:30 PM57 °FLight rain. Partly sunny.20 mph94%29.68 "Hg6 mi
1:00 PM57 °FLight rain. Broken clouds.13 mph88%29.71 "Hg4 mi
12:30 PM57 °FLight rain. Partly sunny.15 mph88%29.71 "HgN/A
12:00 PM59 °FLight rain. Broken clouds.17 mph82%29.71 "Hg6 mi
11:30 AM59 °FLight rain. Partly sunny.18 mph88%29.71 "HgN/A
11:00 AM61 °FPartly sunny.18 mph83%29.71 "HgN/A
10:30 AM57 °FLight rain. Broken clouds.15 mph88%29.71 "HgN/A
10:00 AM55 °FHeavy rain. Mostly cloudy.12 mph94%29.71 "Hg1 mi
9:30 AM55 °FRain. Broken clouds.14 mph94%29.71 "Hg4 mi
9:00 AM55 °FLight rain. Partly sunny.7 mph94%29.68 "Hg6 mi
8:30 AM54 °FLight rain. Cloudy.6 mph94%29.68 "HgN/A
8:00 AM54 °FRain. Mostly cloudy.9 mph94%29.68 "HgN/A
7:30 AM55 °FRain. Overcast.12 mph88%29.68 "Hg5 mi
7:00 AM55 °FLight rain. Partly sunny.12 mph88%29.68 "HgN/A
6:30 AM55 °FLight rain. Overcast.13 mph88%29.68 "HgN/A
6:00 AM55 °FPartly cloudy.10 mph88%29.68 "HgN/A
5:30 AM55 °FLight rain. Partly cloudy.9 mph88%29.68 "HgN/A
5:00 AM55 °FLight rain. Partly cloudy.8 mph88%29.68 "HgN/A
4:30 AM55 °FLight rain. Mostly cloudy.6 mph82%29.68 "HgN/A
4:00 AM55 °FLight rain. Mostly cloudy.12 mph82%29.71 "HgN/A
3:30 AM55 °FLight rain. Overcast.13 mph82%29.71 "HgN/A
3:00 AM55 °FLight rain. Mostly cloudy.7 mph94%29.71 "HgN/A
2:30 AM55 °FPassing clouds.7 mph94%29.71 "HgN/A
2:00 AM54 °FPassing clouds.6 mph94%29.71 "HgN/A
1:30 AM57 °FPartly cloudy.5 mph88%29.74 "HgN/A
1:00 AM57 °FPartly cloudy.9 mph88%29.74 "HgN/A
12:30 AM57 °FPartly cloudy.7 mph94%29.74 "HgN/A
12:00 AM57 °FMostly cloudy.7 mph94%29.77 "HgN/A
11:30 PM
Tue, Oct 25
57 °FLight rain. Mostly cloudy.5 mph94%29.77 "HgN/A
11:00 PM57 °FLight rain. Overcast.6 mph94%29.77 "Hg3 mi
10:30 PM57 °FLight rain. Passing clouds.9 mph94%29.77 "HgN/A
10:00 PM59 °FPassing clouds.9 mph88%29.77 "HgN/A
Weather by CustomWeather, © 2016

See weather overviewHow to use our weather pages